STARLINK-1123 (44930 NORAD) Tracking and Keplerian Element Data

This shows tracking and keplerian element data for the satellite.

Feedback or suggestion? Click here.




ElementValue
Catalog44930
NameSTARLINK-1123
Epoch Orbit1328
Epoch Day93.91667824
Epoch Year2020
RAAN353.6294
Inclination53.0027
Eccentricity0.0002264
Argument of Perigee67.8861
Mean Anonmoly193.9891
Mean Motion15.0558099
Decay Rate-0.00017104
L11 44930U 20001S 20093.91667824 -.00017104 00000-0 -11574-2 0 9995
L22 44930 53.0027 353.6294 0002264 67.8861 193.9891 15.05580990 13287

Live tracking and technical data element details for STARLINK-1123 (NORAD 44930). STARLINK-1123 can be tracked NOW for your location showing map with azimuth and elevation plus other details from your city location.

Track the satellite on the map from your city or location and see movement details for azimuth, elevation, latitude, longitude, range, height, and movement on the map or in text.







IsCatalogInMostPopularTable: catalog: 44930, numindb: 22
Update: records affected: 1



GetName: 44930 STARLINK-1123

Hit Count: updated at: Fri, 10 Apr 2020 17:43:01 GMT